05-02-2023, 00:00:05,    311,    0.0,    5.8,   0.00,   0.00, 1034.3,    0.2, -999.0
05-02-2023, 00:00:15,    285,    0.2,    5.8,   0.00,   0.00, 1034.4,    0.1, -999.0
05-02-2023, 00:00:25,    317,    0.8,    5.9,   0.00,   0.00, 1034.4,    0.0, -999.0
05-02-2023, 00:00:35,    316,    0.3,    5.8,   0.00,   0.00, 1034.4,    0.1, -999.0
05-02-2023, 00:00:45,    315,    0.0,    5.7,   0.00,   0.00, 1034.3,    0.1, -999.0
05-02-2023, 00:00:55,    315,    0.0,    5.7,   0.00,   0.00, 1034.3,    0.2, -999.0
05-02-2023, 00:01:05,    315,    0.0,    5.8,   0.00,   0.00, 1034.3,    0.1, -999.0
05-02-2023, 00:01:15,    315,    0.2,    5.8,   0.00,   0.00, 1034.4,    0.1, -999.0
05-02-2023, 00:01:25,    317,    0.9,    5.8,   0.00,   0.00, 1034.4,    0.2, -999.0
05-02-2023, 00:01:35,    316,    0.4,    5.8,   0.00,   0.00, 1034.4,    0.1, -999.0
05-02-2023, 00:01:45,    315,    0.1,    5.8,   0.00,   0.00, 1034.3,    0.0, -999.0
05-02-2023, 00:01:55,    296,    1.0,    5.8,   0.00,   0.00, 1034.5,    0.1, -999.0
05-02-2023, 00:02:05,    295,    1.3,    5.8,   0.00,   0.00, 1034.5,    0.3, -999.0
05-02-2023, 00:02:15,    289,    1.1,    5.8,   0.00,   0.00, 1034.5,    0.0, -999.0
05-02-2023, 00:02:25,    295,    0.9,    5.7,   0.00,   0.00, 1034.4,    0.1, -999.0
05-02-2023, 00:02:35,    295,    0.9,    5.9,   0.00,   0.00, 1034.4,    0.1, -999.0
05-02-2023, 00:02:45,    295,    0.3,    5.8,   0.00,   0.00, 1034.4,    0.1, -999.0
05-02-2023, 00:02:55,    295,    0.0,    5.6,   0.00,   0.00, 1034.3,    0.0, -999.0
05-02-2023, 00:03:05,    295,    0.2,    5.8,   0.00,   0.00, 1034.4,    0.1, -999.0
05-02-2023, 00:03:15,    295,    0.0,    5.7,   0.00,   0.00, 1034.3,    0.0, -999.0
05-02-2023, 00:03:25,    295,    0.0,    5.7,   0.00,   0.00, 1034.3,    0.0, -999.0
05-02-2023, 00:03:35,    295,    0.2,    5.7,   0.00,   0.00, 1034.4,    0.1, -999.0
05-02-2023, 00:03:45,    295,    0.2,    5.8,   0.00,   0.00, 1034.4,    0.1, -999.0
05-02-2023, 00:03:55,    297,    0.1,    5.7,   0.00,   0.00, 1034.4,    0.3, -999.0
05-02-2023, 00:04:05,    296,    0.9,    5.8,   0.00,   0.00, 1034.5,    0.1, -999.0
05-02-2023, 00:04:15,    308,    0.7,    5.7,   0.00,   0.00, 1034.5,    0.1, -999.0
05-02-2023, 00:04:25,    340,    1.5,    5.8,   0.00,   0.00, 1034.4,    0.2, -999.0
05-02-2023, 00:04:35,    325,    0.3,    5.8,   0.00,   0.00, 1034.4,    0.0, -999.0
05-02-2023, 00:04:45,    325,    0.0,    5.7,   0.00,   0.00, 1034.3,    0.0, -999.0
05-02-2023, 00:04:54,    325,    0.1,    5.7,   0.00,   0.00, 1034.4,    0.0, -999.0
05-02-2023, 00:05:05,    324,    0.0,    5.6,   0.00,   0.00, 1034.4,    0.2, -999.0
05-02-2023, 00:05:15,    324,    0.3,    5.7,   0.00,   0.00, 1034.4,    0.1, -999.0
05-02-2023, 00:05:24,    323,    0.0,    5.8,   0.00,   0.00, 1034.4,    0.4, -999.0
05-02-2023, 00:05:34,    323,    0.0,    5.7,   0.00,   0.00, 1034.4,    0.3, -999.0
05-02-2023, 00:05:45,    323,    0.0,    5.7,   0.00,   0.00, 1034.4,    0.0, -999.0
05-02-2023, 00:05:55,    285,    0.2,    5.7,   0.00,   0.00, 1034.4,    0.0, -999.0
05-02-2023, 00:06:04,    285,    0.1,    5.7,   0.00,   0.00, 1034.4,    0.1, -999.0
05-02-2023, 00:06:14,    285,    0.0,    5.7,   0.00,   0.00, 1034.3,    0.1, -999.0
05-02-2023, 00:06:25,    285,    0.0,    5.7,   0.00,   0.00, 1034.3,    0.2, -999.0
05-02-2023, 00:06:34,    285,    0.0,    5.7,   0.00,   0.00, 1034.3,    0.0, -999.0
05-02-2023, 00:06:44,    285,    0.0,    5.6,   0.00,   0.00, 1034.3,    0.0, -999.0
05-02-2023, 00:06:54,    285,    0.0,    5.7,   0.00,   0.00, 1034.3,    0.0, -999.0
05-02-2023, 00:07:04,    285,    0.0,    5.6,   0.00,   0.00, 1034.3,    0.1, -999.0
05-02-2023, 00:07:14,    285,    0.0,    5.7,   0.00,   0.00, 1034.3,    0.0, -999.0
05-02-2023, 00:07:24,    285,    0.2,    5.7,   0.00,   0.00, 1034.3,    0.2, -999.0
05-02-2023, 00:07:34,    283,    0.7,    5.8,   0.00,   0.00, 1034.5,    0.2, -999.0
05-02-2023, 00:07:44,    283,    0.1,    5.7,   0.00,   0.00, 1034.3,    0.0, -999.0
05-02-2023, 00:07:54,    283,    0.1,    5.6,   0.00,   0.00, 1034.3,    0.2, -999.0
05-02-2023, 00:08:04,    283,    0.0,    5.6,   0.00,   0.00, 1034.3,    0.0, -999.0
05-02-2023, 00:08:14,    283,    0.0,    5.6,   0.00,   0.00, 1034.3,    0.0, -999.0
05-02-2023, 00:08:24,    283,    0.0,    5.6,   0.00,   0.00, 1034.3,    0.1, -999.0
05-02-2023, 00:08:34,    283,    0.0,    5.7,   0.00,   0.00, 1034.3,    0.1, -999.0
05-02-2023, 00:08:44,    283,    0.0,    5.7,   0.00,   0.00, 1034.3,    0.2, -999.0
05-02-2023, 00:08:54,    283,    0.0,    5.7,   0.00,   0.00, 1034.3,    0.0, -999.0
05-02-2023, 00:09:04,    283,    0.0,    5.6,   0.00,   0.00, 1034.3,    0.1, -999.0
05-02-2023, 00:09:14,    283,    0.1,    5.7,   0.00,   0.00, 1034.3,    0.2, -999.0
05-02-2023, 00:09:24,    280,    0.6,    5.8,   0.00,   0.00, 1034.4,    0.1, -999.0
05-02-2023, 00:09:34,    280,    0.6,    5.7,   0.00,   0.00, 1034.4,    0.3, -999.0
05-02-2023, 00:09:44,    281,    0.8,    5.7,   0.00,   0.00, 1034.5,    0.2, -999.0
05-02-2023, 00:09:54,    280,    0.2,    5.7,   0.00,   0.00, 1034.4,    0.2, -999.0
05-02-2023, 00:10:04,    280,    0.1,    5.7,   0.00,   0.00, 1034.4,    0.1, -999.0
05-02-2023, 00:10:14,    280,    0.6,    5.7,   0.00,   0.00, 1034.4,    0.1, -999.0
05-02-2023, 00:10:24,    280,    0.1,    5.8,   0.00,   0.00, 1034.4,    0.1, -999.0
05-02-2023, 00:10:34,    280,    0.1,    5.7,   0.00,   0.00, 1034.4,    0.2, -999.0
05-02-2023, 00:10:44,    280,    0.0,    5.7,   0.00,   0.00, 1034.4,    0.1, -999.0
05-02-2023, 00:10:54,    275,    1.0,    5.8,   0.00,   0.00, 1034.5,    0.3, -999.0
05-02-2023, 00:11:04,    272,    0.3,    5.8,   0.00,   0.00, 1034.4,    0.0, -999.0
05-02-2023, 00:11:14,    272,    0.0,    5.7,   0.00,   0.00, 1034.4,    0.1, -999.0
05-02-2023, 00:11:24,    270,    0.5,    5.7,   0.00,   0.00, 1034.4,    0.0, -999.0
05-02-2023, 00:11:34,    271,    0.7,    5.8,   0.00,   0.00, 1034.5,    0.1, -999.0
05-02-2023, 00:11:44,    270,    0.2,    5.7,   0.00,   0.00, 1034.5,    0.0, -999.0
05-02-2023, 00:11:54,    271,    0.0,    5.7,   0.00,   0.00, 1034.4,    0.1, -999.0
05-02-2023, 00:12:04,    270,    0.0,    5.6,   0.00,   0.00, 1034.4,    0.2, -999.0
05-02-2023, 00:12:14,    270,    0.1,    5.7,   0.00,   0.00, 1034.4,    0.1, -999.0
05-02-2023, 00:12:24,    269,    1.0,    5.8,   0.00,   0.00, 1034.5,    0.4, -999.0
05-02-2023, 00:12:34,    269,    0.7,    5.8,   0.00,   0.00, 1034.5,    0.1, -999.0
05-02-2023, 00:12:44,    269,    0.2,    5.7,   0.00,   0.00, 1034.5,    0.1, -999.0
05-02-2023, 00:12:54,    269,    0.0,    5.7,   0.00,   0.00, 1034.4,    0.0, -999.0
05-02-2023, 00:13:04,    269,    0.0,    5.7,   0.00,   0.00, 1034.4,    0.1, -999.0
05-02-2023, 00:13:13,    268,    0.1,    5.7,   0.00,   0.00, 1034.5,    0.0, -999.0
05-02-2023, 00:13:24,    253,    0.5,    5.7,   0.00,   0.00, 1034.5,    0.2, -999.0
05-02-2023, 00:13:34,    252,    0.3,    5.8,   0.00,   0.00, 1034.5,    0.0, -999.0
05-02-2023, 00:13:43,    253,    0.1,    5.7,   0.00,   0.00, 1034.4,    0.0, -999.0
05-02-2023, 00:13:53,    253,    0.1,    5.7,   0.00,   0.00, 1034.5,    0.1, -999.0
05-02-2023, 00:14:04,    253,    0.0,    5.7,   0.00,   0.00, 1034.4,    0.1, -999.0
05-02-2023, 00:14:14,    253,    0.0,    5.7,   0.00,   0.00, 1034.5,    0.0, -999.0
05-02-2023, 00:14:23,    256,    0.3,    5.8,   0.00,   0.00, 1034.5,    0.2, -999.0
05-02-2023, 00:14:34,    259,    0.4,    5.8,   0.00,   0.00, 1034.5,    0.2, -999.0
05-02-2023, 00:14:44,    259,    0.0,    5.8,   0.00,   0.00, 1034.5,    0.1, -999.0
05-02-2023, 00:14:53,    286,    0.5,    5.8,   0.00,   0.00, 1034.6,    0.1, -999.0
05-02-2023, 00:15:03,    286,    1.2,    5.9,   0.00,   0.00, 1034.6,    0.1, -999.0
05-02-2023, 00:15:14,    296,    1.9,    5.9,   0.00,   0.00, 1034.6,    0.1, -999.0
05-02-2023, 00:15:23,    297,    1.2,    5.9,   0.00,   0.00, 1034.6,    0.2, -999.0
05-02-2023, 00:15:33,    324,    0.9,    5.9,   0.00,   0.00, 1034.5,    0.2, -999.0
05-02-2023, 00:15:43,    324,    0.4,    5.8,   0.00,   0.00, 1034.5,    0.0, -999.0
05-02-2023, 00:15:54,    300,    0.1,    5.7,   0.00,   0.00, 1034.4,    0.2, -999.0
05-02-2023, 00:16:03,    280,    0.9,    5.8,   0.00,   0.00, 1034.5,    0.1, -999.0
05-02-2023, 00:16:13,    280,    0.3,    5.8,   0.00,   0.00, 1034.5,    0.1, -999.0
05-02-2023, 00:16:23,    280,    0.0,    5.8,   0.00,   0.00, 1034.4,    0.0, -999.0
05-02-2023, 00:16:33,    313,    0.8,    5.8,   0.00,   0.00, 1034.4,    0.1, -999.0
05-02-2023, 00:16:43,    314,    1.0,    5.9,   0.00,   0.00, 1034.5,    0.3, -999.0
05-02-2023, 00:16:53,    313,    0.1,    5.8,   0.00,   0.00, 1034.4,    0.0, -999.0
05-02-2023, 00:17:03,    313,    0.0,    5.7,   0.00,   0.00, 1034.3,    0.1, -999.0
05-02-2023, 00:17:13,    311,    0.1,    5.8,   0.00,   0.00, 1034.4,    0.1, -999.0
05-02-2023, 00:17:23,    310,    0.0,    5.7,   0.00,   0.00, 1034.3,    0.1, -999.0
05-02-2023, 00:17:33,    310,    0.0,    5.8,   0.00,   0.00, 1034.3,    0.0, -999.0
05-02-2023, 00:17:43,    310,    0.0,    5.7,   0.00,   0.00, 1034.3,    0.1, -999.0
05-02-2023, 00:17:53,    310,    0.0,    5.7,   0.00,   0.00, 1034.3,    0.1, -999.0
05-02-2023, 00:18:03,    310,    0.0,    5.7,   0.00,   0.00, 1034.3,    0.1, -999.0
05-02-2023, 00:18:13,    310,    0.0,    5.8,   0.00,   0.00, 1034.3,    0.1, -999.0
05-02-2023, 00:18:23,    310,    0.0,    5.8,   0.00,   0.00, 1034.3,    0.0, -999.0
05-02-2023, 00:18:33,    310,    0.0,    5.8,   0.00,   0.00, 1034.3,    0.1, -999.0
05-02-2023, 00:18:43,    310,    0.0,    5.9,   0.00,   0.00, 1034.2,    0.2, -999.0
05-02-2023, 00:18:53,    310,    0.0,    5.8,   0.00,   0.00, 1034.3,    0.1, -999.0
05-02-2023, 00:19:03,    289,    0.0,    5.8,   0.00,   0.00, 1034.3,    0.0, -999.0
05-02-2023, 00:19:13,    274,    1.7,    5.7,   0.00,   0.00, 1034.4,    0.1, -999.0
05-02-2023, 00:19:23,    304,    1.2,    5.8,   0.00,   0.00, 1034.4,    0.4, -999.0
05-02-2023, 00:19:33,    259,    0.8,    5.8,   0.00,   0.00, 1034.4,    0.1, -999.0
05-02-2023, 00:19:43,    268,    1.0,    5.8,   0.00,   0.00, 1034.4,    0.2, -999.0
05-02-2023, 00:19:53,    268,    0.2,    5.8,   0.00,   0.00, 1034.3,    0.0, -999.0
05-02-2023, 00:20:03,    268,    0.0,    5.7,   0.00,   0.00, 1034.3,    0.1, -999.0
05-02-2023, 00:20:13,    269,    0.3,    5.8,   0.00,   0.00, 1034.4,    0.2, -999.0
05-02-2023, 00:20:23,    275,    0.5,    5.8,   0.00,   0.00, 1034.4,    0.1, -999.0
05-02-2023, 00:20:33,    296,    0.9,    5.8,   0.00,   0.00, 1034.4,    0.3, -999.0
05-02-2023, 00:20:43,    282,    0.6,    5.9,   0.00,   0.00, 1034.4,    0.1, -999.0
05-02-2023, 00:20:53,    282,    0.3,    5.8,   0.00,   0.00, 1034.4,    0.3, -999.0
05-02-2023, 00:21:03,    322,    0.9,    5.8,   0.00,   0.00, 1034.4,    0.1, -999.0
05-02-2023, 00:21:13,    321,    0.1,    5.8,   0.00,   0.00, 1034.3,    0.3, -999.0
05-02-2023, 00:21:23,    321,    0.0,    5.7,   0.00,   0.00, 1034.3,    0.2, -999.0
05-02-2023, 00:21:33,    321,    0.0,    5.8,   0.00,   0.00, 1034.3,    0.1, -999.0
05-02-2023, 00:21:43,    321,    0.1,    5.8,   0.00,   0.00, 1034.4,    0.1, -999.0
05-02-2023, 00:21:53,    317,    0.3,    5.9,   0.00,   0.00, 1034.4,    0.2, -999.0
05-02-2023, 00:22:03,    317,    0.0,    5.8,   0.00,   0.00, 1034.3,    0.2, -999.0
05-02-2023, 00:22:12,    317,    0.0,    5.7,   0.00,   0.00, 1034.3,    0.0, -999.0
05-02-2023, 00:22:23,    315,    0.0,    5.8,   0.00,   0.00, 1034.3,    0.0, -999.0
05-02-2023, 00:22:33,    317,    0.2,    5.7,   0.00,   0.00, 1034.4,    0.1, -999.0
05-02-2023, 00:22:42,    317,    0.0,    5.7,   0.00,   0.00, 1034.3,    0.0, -999.0
05-02-2023, 00:22:53,    317,    0.0,    5.8,   0.00,   0.00, 1034.3,    0.3, -999.0
05-02-2023, 00:23:03,    317,    0.0,    5.7,   0.00,   0.00, 1034.3,    0.2, -999.0
05-02-2023, 00:23:13,    325,    1.0,    5.7,   0.00,   0.00, 1034.4,    0.1, -999.0
05-02-2023, 00:23:22,    323,    0.8,    5.9,   0.00,   0.00, 1034.4,    0.1, -999.0
05-02-2023, 00:23:33,    309,    1.1,    5.9,   0.00,   0.00, 1034.5,    0.1, -999.0
05-02-2023, 00:23:43,    309,    0.0,    5.8,   0.00,   0.00, 1034.4,    0.0, -999.0
05-02-2023, 00:23:52,    308,    0.0,    5.8,   0.00,   0.00, 1034.3,    0.0, -999.0
05-02-2023, 00:24:02,    309,    0.0,    5.8,   0.00,   0.00, 1034.4,    0.0, -999.0
05-02-2023, 00:24:13,    308,    0.2,    5.8,   0.00,   0.00, 1034.4,    0.1, -999.0
05-02-2023, 00:24:22,    307,    0.0,    5.8,   0.00,   0.00, 1034.4,    0.4, -999.0
05-02-2023, 00:24:32,    311,    0.1,    5.8,   0.00,   0.00, 1034.4,    0.0, -999.0
05-02-2023, 00:24:42,    299,    1.2,    5.8,   0.00,   0.00, 1034.5,    0.0, -999.0
05-02-2023, 00:24:53,    299,    0.1,    5.8,   0.00,   0.00, 1034.4,    0.0, -999.0
05-02-2023, 00:25:02,    299,    0.1,    5.9,   0.00,   0.00, 1034.4,   51.7, -999.0
05-02-2023, 00:25:12,    300,    0.1,    5.8,   0.00,   0.00, 1034.4,   98.7, -999.0
05-02-2023, 00:25:22,    300,    0.4,    5.9,   0.00,   0.00, 1034.5,   98.9, -999.0
05-02-2023, 00:25:32,    325,    1.4,    5.9,   0.00,   0.00, 1034.5,   99.0, -999.0
05-02-2023, 00:25:42,    306,    0.9,    5.8,   0.00,   0.00, 1034.5,   99.0, -999.0
05-02-2023, 00:25:52,    298,    1.7,    5.9,   0.00,   0.00, 1034.5,   99.0, -999.0
05-02-2023, 00:26:02,    296,    1.0,    5.9,   0.00,   0.00, 1034.5,   99.1, -999.0
05-02-2023, 00:26:12,    308,    1.3,    5.9,   0.00,   0.00, 1034.4,   99.0, -999.0
05-02-2023, 00:26:22,    307,    0.2,    5.9,   0.00,   0.00, 1034.4,   98.9, -999.0
05-02-2023, 00:26:32,    317,    0.8,    5.9,   0.00,   0.00, 1034.4,   98.9, -999.0
05-02-2023, 00:26:42,    318,    1.3,    5.8,   0.00,   0.00, 1034.5,   99.0, -999.0
05-02-2023, 00:26:52,    318,    0.7,    5.8,   0.00,   0.00, 1034.4,   98.9, -999.0
05-02-2023, 00:27:02,    301,    0.3,    5.8,   0.00,   0.00, 1034.4,   98.9, -999.0
05-02-2023, 00:27:12,    301,    0.6,    5.9,   0.00,   0.00, 1034.5,   99.0, -999.0
05-02-2023, 00:27:22,    301,    0.0,    5.8,   0.00,   0.00, 1034.4,   98.8, -999.0
05-02-2023, 00:27:32,    301,    0.0,    5.8,   0.00,   0.00, 1034.3,   98.7, -999.0
05-02-2023, 00:27:42,    300,    0.0,    5.8,   0.00,   0.00, 1034.3,   98.6, -999.0
05-02-2023, 00:27:52,    300,    0.0,    5.7,   0.00,   0.00, 1034.3,   98.6, -999.0
05-02-2023, 00:28:02,    300,    0.0,    5.7,   0.00,   0.00, 1034.3,   98.6, -999.0
05-02-2023, 00:28:12,    300,    0.0,    5.7,   0.00,   0.00, 1034.3,   98.6, -999.0
05-02-2023, 00:28:22,    300,    0.0,    5.7,   0.00,   0.00, 1034.2,   98.7, -999.0
05-02-2023, 00:28:32,    300,    0.0,    5.7,   0.00,   0.00, 1034.2,   98.6, -999.0
05-02-2023, 00:28:42,    301,    0.2,    5.7,   0.00,   0.00, 1034.3,   98.8, -999.0
05-02-2023, 00:28:52,    301,    0.1,    5.8,   0.00,   0.00, 1034.3,   98.8, -999.0
05-02-2023, 00:29:02,    300,    0.0,    5.8,   0.00,   0.00, 1034.2,   98.6, -999.0
05-02-2023, 00:29:12,    299,    0.6,    5.8,   0.00,   0.00, 1034.3,   99.0, -999.0
05-02-2023, 00:29:22,    299,    0.0,    5.8,   0.00,   0.00, 1034.2,   98.7, -999.0
05-02-2023, 00:29:32,    299,    0.0,    5.7,   0.00,   0.00, 1034.1,   98.6, -999.0
05-02-2023, 00:29:42,    304,    0.4,    5.8,   0.00,   0.00, 1034.2,   98.8, -999.0
05-02-2023, 00:29:52,    320,    1.4,    5.9,   0.00,   0.00, 1034.3,   99.0, -999.0
05-02-2023, 00:30:02,    319,    1.3,    5.8,   0.00,   0.00, 1034.3,   99.0, -999.0
05-02-2023, 00:30:12,    313,    1.5,    5.8,   0.00,   0.00, 1034.3,   99.0, -999.0
05-02-2023, 00:30:22,    308,    0.7,    5.7,   0.00,   0.00, 1034.3,   99.0, -999.0
05-02-2023, 00:30:32,    302,    0.1,    5.8,   0.00,   0.00, 1034.2,   98.9, -999.0
05-02-2023, 00:30:42,    295,    0.0,    5.8,   0.00,   0.00, 1034.2,   98.7, -999.0
05-02-2023, 00:30:52,    295,    0.0,    5.7,   0.00,   0.00, 1034.1,   98.6, -999.0
05-02-2023, 00:31:02,    295,    0.0,    5.7,   0.00,   0.00, 1034.1,   98.6, -999.0
05-02-2023, 00:31:12,    295,    0.0,    5.7,   0.00,   0.00, 1034.1,   98.6, -999.0
05-02-2023, 00:31:22,    295,    0.0,    5.7,   0.00,   0.00, 1034.2,   98.6, -999.0
05-02-2023, 00:31:32,    295,    0.0,    5.6,   0.00,   0.00, 1034.2,   98.7, -999.0
05-02-2023, 00:31:41,    295,    0.0,    5.6,   0.00,   0.00, 1034.1,   98.7, -999.0
05-02-2023, 00:31:52,    295,    0.0,    5.7,   0.00,   0.00, 1034.2,   98.6, -999.0
05-02-2023, 00:32:02,    295,    0.0,    5.7,   0.00,   0.00, 1034.2,   98.7, -999.0
05-02-2023, 00:32:11,    295,    0.0,    5.7,   0.00,   0.00, 1034.2,   98.6, -999.0
05-02-2023, 00:32:21,    295,    0.0,    5.6,   0.00,   0.00, 1034.2,   98.6, -999.0
05-02-2023, 00:32:32,    295,    0.0,    5.7,   0.00,   0.00, 1034.2,   98.6, -999.0
05-02-2023, 00:32:42,    295,    0.0,    5.7,   0.00,   0.00, 1034.3,   98.7, -999.0
05-02-2023, 00:32:51,    293,    0.4,    5.8,   0.00,   0.00, 1034.4,   98.9, -999.0
05-02-2023, 00:33:01,    293,    0.6,    5.9,   0.00,   0.00, 1034.4,   99.0, -999.0
05-02-2023, 00:33:12,    292,    0.2,    5.8,   0.00,   0.00, 1034.4,   98.9, -999.0
05-02-2023, 00:33:21,    334,    0.5,    5.8,   0.00,   0.00, 1034.4,   99.0, -999.0
05-02-2023, 00:33:31,    327,    0.2,    5.7,   0.00,   0.00, 1034.4,   98.9, -999.0
05-02-2023, 00:33:41,    327,    0.0,    5.6,   0.00,   0.00, 1034.3,   98.6, -999.0
05-02-2023, 00:33:51,    327,    0.2,    5.7,   0.00,   0.00, 1034.3,   98.7, -999.0
05-02-2023, 00:34:01,    313,    1.2,    5.7,   0.00,   0.00, 1034.4,   99.0, -999.0
05-02-2023, 00:34:11,    313,    0.1,    5.7,   0.00,   0.00, 1034.4,   98.8, -999.0
05-02-2023, 00:34:21,    313,    0.4,    5.7,   0.00,   0.00, 1034.4,   99.0, -999.0
05-02-2023, 00:34:31,    313,    0.3,    5.8,   0.00,   0.00, 1034.4,   98.9, -999.0
05-02-2023, 00:34:41,    313,    0.6,    5.7,   0.00,   0.00, 1034.4,   99.0, -999.0
05-02-2023, 00:34:51,    320,    1.2,    5.8,   0.00,   0.00, 1034.5,   99.0, -999.0
05-02-2023, 00:35:01,    319,    0.6,    5.8,   0.00,   0.00, 1034.5,   99.0, -999.0
05-02-2023, 00:35:11,    319,    0.0,    5.7,   0.00,   0.00, 1034.4,   98.6, -999.0
05-02-2023, 00:35:21,    319,    0.0,    5.6,   0.00,   0.00, 1034.4,   98.7, -999.0
05-02-2023, 00:35:31,    318,    0.3,    5.6,   0.00,   0.00, 1034.5,   98.9, -999.0
05-02-2023, 00:35:41,    313,    0.9,    5.8,   0.00,   0.00, 1034.6,   99.0, -999.0
05-02-2023, 00:35:51,    313,    0.8,    5.8,   0.00,   0.00, 1034.6,   99.0, -999.0
05-02-2023, 00:36:01,    313,    0.1,    5.7,   0.00,   0.00, 1034.5,   98.8, -999.0
05-02-2023, 00:36:11,    307,    0.5,    5.8,   0.00,   0.00, 1034.6,   99.0, -999.0
05-02-2023, 00:36:21,    307,    0.3,    5.7,   0.00,   0.00, 1034.6,   98.9, -999.0
05-02-2023, 00:36:31,    307,    1.3,    5.8,   0.00,   0.00, 1034.6,   99.0, -999.0
05-02-2023, 00:36:41,    307,    0.5,    5.7,   0.00,   0.00, 1034.6,   99.0, -999.0
05-02-2023, 00:36:51,    307,    0.2,    5.7,   0.00,   0.00, 1034.6,   98.8, -999.0
05-02-2023, 00:37:01,    300,    0.9,    5.7,   0.00,   0.00, 1034.7,   99.0, -999.0
05-02-2023, 00:37:11,    331,    1.0,    5.7,   0.00,   0.00, 1034.7,   99.1, -999.0
05-02-2023, 00:37:21,    325,    0.9,    5.8,   0.00,   0.00, 1034.7,   99.0, -999.0
05-02-2023, 00:37:31,    324,    1.5,    5.8,   0.00,   0.00, 1034.7,   99.0, -999.0
05-02-2023, 00:37:41,    324,    1.5,    5.8,   0.00,   0.00, 1034.7,   99.0, -999.0
05-02-2023, 00:37:51,    324,    1.1,    5.8,   0.00,   0.00, 1034.7,   99.0, -999.0
05-02-2023, 00:38:01,    324,    0.7,    5.7,   0.00,   0.00, 1034.7,   99.0, -999.0
05-02-2023, 00:38:11,    323,    0.4,    5.8,   0.00,   0.00, 1034.7,   99.0, -999.0
05-02-2023, 00:38:21,    323,    0.0,    5.7,   0.00,   0.00, 1034.6,   98.7, -999.0
05-02-2023, 00:38:31,    317,    0.7,    5.7,   0.00,   0.00, 1034.7,   99.0, -999.0
05-02-2023, 00:38:41,    317,    0.2,    5.7,   0.00,   0.00, 1034.6,   98.9, -999.0
05-02-2023, 00:38:51,    317,    0.5,    5.7,   0.00,   0.00, 1034.7,   98.7, -999.0
05-02-2023, 00:39:01,    316,    0.1,    5.7,   0.00,   0.00, 1034.6,   98.1, -999.0
05-02-2023, 00:39:11,    317,    0.0,    5.6,   0.00,   0.00, 1034.5,   97.2, -999.0
05-02-2023, 00:39:21,    316,    0.0,    5.6,   0.00,   0.00, 1034.5,   96.9, -999.0
05-02-2023, 00:39:31,    317,    0.1,    5.6,   0.00,   0.00, 1034.5,   96.8, -999.0
05-02-2023, 00:39:41,    317,    0.3,    5.7,   0.00,   0.00, 1034.6,   97.0, -999.0
05-02-2023, 00:39:51,    316,    0.0,    5.6,   0.00,   0.00, 1034.5,   97.0, -999.0
05-02-2023, 00:40:00,    316,    0.0,    5.6,   0.00,   0.00, 1034.5,   97.1, -999.0
05-02-2023, 00:40:11,    317,    0.0,    5.6,   0.00,   0.00, 1034.5,   96.9, -999.0
05-02-2023, 00:40:21,    316,    0.0,    5.6,   0.00,   0.00, 1034.5,   96.8, -999.0
05-02-2023, 00:40:31,    316,    0.0,    5.6,   0.00,   0.00, 1034.4,   96.6, -999.0
05-02-2023, 00:40:40,    317,    0.0,    5.6,   0.00,   0.00, 1034.4,   96.7, -999.0
05-02-2023, 00:40:51,    316,    0.0,    5.5,   0.00,   0.00, 1034.4,   97.0, -999.0
05-02-2023, 00:41:01,    316,    0.0,    5.6,   0.00,   0.00, 1034.4,   97.2, -999.0
05-02-2023, 00:41:10,    317,    0.1,    5.6,   0.00,   0.00, 1034.4,   96.9, -999.0
05-02-2023, 00:41:20,    322,    0.9,    5.6,   0.00,   0.00, 1034.5,   96.2, -999.0
05-02-2023, 00:41:31,    327,    1.2,    5.6,   0.00,   0.00, 1034.5,   95.0, -999.0
05-02-2023, 00:41:40,    323,    1.1,    5.6,   0.00,   0.00, 1034.5,   94.0, -999.0
05-02-2023, 00:41:50,    323,    0.7,    5.6,   0.00,   0.00, 1034.5,   93.4, -999.0
05-02-2023, 00:42:00,    323,    1.1,    5.6,   0.00,   0.00, 1034.5,   92.8, -999.0
05-02-2023, 00:42:11,    324,    0.4,    5.6,   0.00,   0.00, 1034.5,   92.3, -999.0
05-02-2023, 00:42:20,    321,    0.7,    5.6,   0.00,   0.00, 1034.5,   92.2, -999.0
05-02-2023, 00:42:30,    321,    0.8,    5.6,   0.00,   0.00, 1034.5,   92.2, -999.0
05-02-2023, 00:42:41,    321,    1.4,    5.7,   0.00,   0.00, 1034.5,   92.0, -999.0
05-02-2023, 00:42:50,    321,    0.7,    5.6,   0.00,   0.00, 1034.6,   91.7, -999.0
05-02-2023, 00:43:00,    321,    0.0,    5.6,   0.00,   0.00, 1034.5,   91.3, -999.0
05-02-2023, 00:43:10,    321,    0.2,    5.6,   0.00,   0.00, 1034.5,   91.1, -999.0
05-02-2023, 00:43:20,    321,    0.1,    5.6,   0.00,   0.00, 1034.5,   90.9, -999.0
05-02-2023, 00:43:30,    321,    0.0,    5.5,   0.00,   0.00, 1034.5,   90.8, -999.0
05-02-2023, 00:43:40,    321,    0.0,    5.6,   0.00,   0.00, 1034.5,   90.8, -999.0
05-02-2023, 00:43:50,    321,    0.0,    5.5,   0.00,   0.00, 1034.5,   90.7, -999.0
05-02-2023, 00:44:00,    318,    0.0,    5.6,   0.00,   0.00, 1034.5,   90.5, -999.0
05-02-2023, 00:44:10,    318,    0.0,    5.4,   0.00,   0.00, 1034.5,   90.0, -999.0
05-02-2023, 00:44:20,    337,    0.3,    5.6,   0.00,   0.00, 1034.6,   89.7, -999.0
05-02-2023, 00:44:30,    318,    0.1,    5.5,   0.00,   0.00, 1034.6,   89.3, -999.0
05-02-2023, 00:44:40,    318,    0.1,    5.6,   0.00,   0.00, 1034.6,   89.2, -999.0
05-02-2023, 00:44:50,    318,    0.0,    5.6,   0.00,   0.00, 1034.6,   89.0, -999.0
05-02-2023, 00:45:00,    318,    0.0,    5.5,   0.00,   0.00, 1034.5,   88.8, -999.0
05-02-2023, 00:45:10,    318,    0.0,    5.5,   0.00,   0.00, 1034.5,   88.6, -999.0
05-02-2023, 00:45:20,    318,    0.0,    5.6,   0.00,   0.00, 1034.5,   88.4, -999.0
05-02-2023, 00:45:30,    318,    0.0,    5.5,   0.00,   0.00, 1034.5,   88.3, -999.0
05-02-2023, 00:45:40,    314,    1.4,    5.6,   0.00,   0.00, 1034.6,   88.7, -999.0
05-02-2023, 00:45:50,    307,    0.2,    5.5,   0.00,   0.00, 1034.6,   88.3, -999.0
05-02-2023, 00:46:00,    307,    0.0,    5.4,   0.00,   0.00, 1034.5,   87.8, -999.0
05-02-2023, 00:46:10,    307,    0.0,    5.4,   0.00,   0.00, 1034.5,   87.7, -999.0
05-02-2023, 00:46:20,    307,    0.0,    5.4,   0.00,   0.00, 1034.5,   87.6, -999.0
05-02-2023, 00:46:30,    307,    0.0,    5.4,   0.00,   0.00, 1034.5,   87.6, -999.0
05-02-2023, 00:46:40,    307,    0.7,    5.5,   0.00,   0.00, 1034.6,   87.8, -999.0
05-02-2023, 00:46:50,    302,    1.1,    5.6,   0.00,   0.00, 1034.6,   87.5, -999.0